Location: Castelbiague
(43.0361°N, 0.9246°E)
Time: 07:15:28
(UTC+00:00)

USA 215 - Pass Details

Date: 24 October 2021
Orbit: 1099 x 1109 km, 123.0° (Epoch: 20 November)

Event Time Altitude Azimuth Distance (km) Brightness Sun altitude
Exits shadow 20:55:56 24° 342° (NNW) 2,123 5.0 -42.9°
Drops below altitude 10° 20:59:29 10° 312° (NW) 2,964 6.1 -43.5°
Sets 21:02:22 0° 300° (WNW) 3,924 6.9 -43.9°
